Kahului, HI

2:43 PM HST on May 25, 2017 (GMT -1000)
Kahului

Weather History for PHOG - January, 2012

Change the Weather History Date:

Sunday, January 8, 2012

  Actual Average Record
Temperature  
Mean Temperature 70 °F 72 °F  
Max Temperature 84 °F 81 °F 87 °F (1952)
Min Temperature 55 °F 64 °F 52 °F (1971)
Degree Days  
Heating Degree Days 0 0  
Month to date heating degree days 0 0  
Since 1 July heating degree days 0 0  
Cooling Degree Days 5 7  
Month to date cooling degree days 52 56  
Year to date cooling degree days 52 56  
Growing Degree Days 20 (Base 50)    
Moisture  
Dew Point 58 °F    
Average Humidity 65    
Maximum Humidity 81    
Minimum Humidity 49    
Precipitation  
Precipitation 0.00 in 0.10 in 4.14 in (1980)
Month to date precipitation 0.00 0.82  
Year to date precipitation 0.00 0.82  
Snow  
Snow 0.00 in - - ()
Month to date snowfall 0.0  
Since 1 July snowfall 0.0  
Snow Depth 0.00 in    
Sea Level Pressure  
Sea Level Pressure 30.09 in    
Wind  
Wind Speed 6 mph (East)    
Max Wind Speed 18 mph    
Max Gust Speed 22 mph    
Visibility 10 miles    
Events      
T = Trace of Precipitation, MM = Missing Value Source: NWS Daily Summary

Daily Weather History Graph

Daily Weather History Graph

Search for Another Location

Airport or City:

Trip Planner

Search our weather history database for the weather conditions in past years. The results will help you decide how hot, cold, wet, or windy it might be!

Date:

Astronomy

Jan. 08, 2012 Rise Set
Actual Time 7:04 AM HST 6:00 PM HST
Civil Twilight 6:40 AM HST 6:24 PM HST
Nautical Twilight 6:12 AM HST 6:51 PM HST
Astronomical Twilight 5:45 AM HST 7:19 PM HST
Moon 5:52 PM HST (1/8) 6:32 AM HST (1/8)
Length of Visible Light 11h 44m
Length of Day
10h 56m
Full, 100% of the Moon is Illuminated
Jan 8
Full
Jan 8
Full
Jan 15
Last Quarter
Jan 22
New
Jan 30
First Quarter

Hourly Weather History & Observations

Time (HST) Temp. Heat Index Dew Point Humidity Pressure Visibility Wind Dir Wind Speed Gust Speed Precip Events Conditions
12:54 AM 61.0 °F - 54.0 °F 78% 30.10 in 10.0 mi SE 5.8 mph - N/A   Clear
1:54 AM 60.1 °F - 53.1 °F 78% 30.09 in 10.0 mi SSE 8.1 mph - N/A   Clear
2:54 AM 57.9 °F - 52.0 °F 81% 30.08 in 10.0 mi Calm Calm - N/A   Clear
3:54 AM 59.0 °F - 52.0 °F 78% 30.07 in 10.0 mi SE 9.2 mph - N/A   Clear
4:54 AM 59.0 °F - 52.0 °F 78% 30.08 in 10.0 mi SE 9.2 mph - N/A   Clear
5:54 AM 59.0 °F - 52.0 °F 78% 30.08 in 10.0 mi SE 9.2 mph - N/A   Partly Cloudy
6:54 AM 57.0 °F - 51.1 °F 81% 30.09 in 10.0 mi SE 6.9 mph - N/A   Partly Cloudy
7:54 AM 60.1 °F - 54.0 °F 80% 30.11 in 10.0 mi SE 5.8 mph - N/A   Partly Cloudy
8:54 AM 69.1 °F - 57.0 °F 65% 30.12 in 10.0 mi Calm Calm - N/A   Partly Cloudy
9:54 AM 75.0 °F - 57.9 °F 55% 30.13 in 10.0 mi Calm Calm - N/A   Partly Cloudy
10:54 AM 78.1 °F - 59.0 °F 52% 30.12 in 10.0 mi NNW 6.9 mph - N/A   Partly Cloudy
11:54 AM 79.0 °F - 61.0 °F 54% 30.09 in 10.0 mi WNW 5.8 mph - N/A   Partly Cloudy
12:54 PM 81.0 °F 81.3 °F 59.0 °F 47% 30.06 in 10.0 mi North 9.2 mph - N/A   Partly Cloudy
1:54 PM 82.9 °F 84.4 °F 64.0 °F 53% 30.04 in 10.0 mi NE 12.7 mph - N/A   Partly Cloudy
2:54 PM 80.1 °F 81.5 °F 63.0 °F 56% 30.03 in 10.0 mi NE 13.8 mph - N/A   Scattered Clouds
3:54 PM 81.0 °F 82.2 °F 63.0 °F 54% 30.04 in 10.0 mi ENE 12.7 mph - N/A   Scattered Clouds
4:54 PM 80.1 °F 81.5 °F 63.0 °F 56% 30.04 in 10.0 mi Calm Calm - N/A   Clear
5:54 PM 75.0 °F - 61.0 °F 62% 30.06 in 10.0 mi ENE 8.1 mph - N/A   Clear
6:54 PM 73.0 °F - 61.0 °F 66% 30.07 in 10.0 mi Variable 3.5 mph - N/A   Scattered Clouds
7:54 PM 73.0 °F - 63.0 °F 71% 30.10 in 10.0 mi Calm Calm - N/A   Scattered Clouds
8:54 PM 66.9 °F - 61.0 °F 81% 30.12 in 10.0 mi SE 4.6 mph - N/A   Clear
9:54 PM 66.0 °F - 59.0 °F 78% 30.13 in 10.0 mi SE 3.5 mph - N/A   Clear
10:54 PM 66.0 °F - 59.0 °F 78% 30.13 in 10.0 mi Calm Calm - N/A   Clear
11:54 PM 70.0 °F - 61.0 °F 73% 30.13 in 10.0 mi NE 9.2 mph - N/A   Clear